EN

Hourly Weather Topasevo

Today, 18 May, Tuesday

Time Temperature Precipitation Wind Pressure Humidity
00:00 +20°C° 0.2 mm 2 mps 752 mmHg 68%
01:00 +19°C° 0.2 mm 2 mps 752 mmHg 74%
02:00 +19°C° 0 mm 2 mps 752 mmHg 77%
03:00 +19°C° 0 mm 2 mps 752 mmHg 80%
04:00 +18°C° 0 mm 2 mps 752 mmHg 81%
05:00 +19°C° 0 mm 2 mps 752 mmHg 76%
06:00 +21°C° 0 mm 1 mps 752 mmHg 72%
07:00 +22°C° 0 mm 1 mps 752 mmHg 68%
08:00 +24°C° 0 mm 2 mps 752 mmHg 61%
09:00 +25°C° 0 mm 3 mps 752 mmHg 55%
10:00 +26°C° 0 mm 3 mps 752 mmHg 48%
11:00 +27°C° 0 mm 3 mps 752 mmHg 44%
12:00 +28°C° 0 mm 3 mps 752 mmHg 40%
13:00 +29°C° 0 mm 3 mps 752 mmHg 36%
14:00 +29°C° 0 mm 3 mps 752 mmHg 36%
15:00 +29°C° 0 mm 4 mps 752 mmHg 37%
16:00 +28°C° 0 mm 4 mps 753 mmHg 37%
17:00 +27°C° 0 mm 4 mps 753 mmHg 42%
18:00 +26°C° 0 mm 4 mps 753 mmHg 47%
19:00 +24°C° 0 mm 3 mps 753 mmHg 52%
20:00 +22°C° 0 mm 3 mps 753 mmHg 55%
21:00 +20°C° 0 mm 3 mps 753 mmHg 59%
22:00 +19°C° 0 mm 3 mps 753 mmHg 62%
23:00 +18°C° 0 mm 3 mps 753 mmHg 66%

Tomorrow, 19 May, Wednesday

Time Temperature Precipitation Wind Pressure Humidity
00:00 +17°C° 0 mm 3 mps 753 mmHg 70%
01:00 +17°C° 0 mm 3 mps 753 mmHg 73%
02:00 +16°C° 0 mm 3 mps 754 mmHg 77%
03:00 +14°C° 0 mm 3 mps 754 mmHg 80%
04:00 +13°C° 0 mm 3 mps 754 mmHg 83%
05:00 +14°C° 0 mm 4 mps 754 mmHg 80%
06:00 +15°C° 0 mm 4 mps 754 mmHg 77%
07:00 +16°C° 0 mm 5 mps 754 mmHg 73%
08:00 +17°C° 0 mm 5 mps 754 mmHg 67%
09:00 +20°C° 0 mm 6 mps 755 mmHg 61%
10:00 +21°C° 0 mm 6 mps 755 mmHg 56%
11:00 +22°C° 0 mm 6 mps 755 mmHg 52%
12:00 +23°C° 0 mm 6 mps 754 mmHg 48%
13:00 +26°C° 0 mm 6 mps 754 mmHg 44%
14:00 +26°C° 0 mm 6 mps 754 mmHg 42%
15:00 +26°C° 0 mm 6 mps 754 mmHg 40%
16:00 +27°C° 0 mm 5 mps 754 mmHg 38%
17:00 +26°C° 0 mm 5 mps 754 mmHg 43%
18:00 +25°C° 0 mm 4 mps 754 mmHg 48%
19:00 +24°C° 0 mm 3 mps 754 mmHg 52%
20:00 +21°C° 0 mm 3 mps 754 mmHg 55%
21:00 +19°C° 0 mm 3 mps 754 mmHg 58%
22:00 +18°C° 0 mm 3 mps 754 mmHg 61%
23:00 +17°C° 0 mm 3 mps 754 mmHg 61%

Day after tomorrow, 20 May, Thursday

Time Temperature Precipitation Wind Pressure Humidity
00:00 +17°C° 0 mm 3 mps 754 mmHg 62%
01:00 +16°C° 0 mm 2 mps 754 mmHg 62%
02:00 +16°C° 0 mm 2 mps 754 mmHg 63%
03:00 +15°C° 0 mm 2 mps 754 mmHg 64%
04:00 +15°C° 0 mm 2 mps 754 mmHg 64%
05:00 +16°C° 0 mm 2 mps 755 mmHg 63%
06:00 +17°C° 0 mm 3 mps 755 mmHg 61%
07:00 +18°C° 0 mm 3 mps 755 mmHg 60%
08:00 +20°C° 0 mm 3 mps 755 mmHg 54%
09:00 +21°C° 0 mm 4 mps 755 mmHg 48%
10:00 +23°C° 0 mm 4 mps 755 mmHg 42%
11:00 +25°C° 0 mm 5 mps 755 mmHg 39%
12:00 +25°C° 0 mm 5 mps 754 mmHg 37%
13:00 +26°C° 0 mm 5 mps 754 mmHg 35%
14:00 +26°C° 0 mm 5 mps 754 mmHg 34%
15:00 +26°C° 0 mm 6 mps 754 mmHg 34%
16:00 +26°C° 0 mm 6 mps 753 mmHg 34%
17:00 +25°C° 0 mm 5 mps 753 mmHg 39%
18:00 +23°C° 0 mm 4 mps 753 mmHg 45%
19:00 +22°C° 0 mm 4 mps 752 mmHg 50%
20:00 +20°C° 0 mm 4 mps 752 mmHg 53%
21:00 +19°C° 0 mm 3 mps 752 mmHg 57%
22:00 +17°C° 0 mm 3 mps 752 mmHg 60%
23:00 +17°C° 0 mm 3 mps 752 mmHg 60%

21 May, Friday

Time Temperature Precipitation Wind Pressure Humidity
00:00 +16°C° 0 mm 3 mps 751 mmHg 60%
01:00 +16°C° 0 mm 3 mps 751 mmHg 59%
02:00 +15°C° 0 mm 4 mps 751 mmHg 58%
03:00 +15°C° 0 mm 4 mps 751 mmHg 56%
04:00 +15°C° 0 mm 4 mps 751 mmHg 54%
05:00 +15°C° 0 mm 4 mps 751 mmHg 56%
06:00 +17°C° 0 mm 4 mps 751 mmHg 58%
07:00 +16°C° 0 mm 5 mps 751 mmHg 60%
08:00 +19°C° 0 mm 5 mps 751 mmHg 60%
09:00 +20°C° 0 mm 5 mps 751 mmHg 60%
10:00 +22°C° 0 mm 6 mps 751 mmHg 59%
11:00 +22°C° 0.1 mm 5 mps 751 mmHg 58%
12:00 +22°C° 0.1 mm 5 mps 751 mmHg 57%
13:00 +23°C° 0.1 mm 5 mps 751 mmHg 56%
14:00 +23°C° 0.2 mm 5 mps 751 mmHg 55%
15:00 +23°C° 0.2 mm 5 mps 751 mmHg 53%
16:00 +23°C° 0.2 mm 5 mps 751 mmHg 52%
17:00 +22°C° 0 mm 4 mps 751 mmHg 54%
18:00 +22°C° 0 mm 4 mps 752 mmHg 57%
19:00 +21°C° 0 mm 4 mps 752 mmHg 60%
20:00 +20°C° 0 mm 4 mps 752 mmHg 66%
21:00 +18°C° 0 mm 3 mps 752 mmHg 72%
22:00 +17°C° 0 mm 3 mps 753 mmHg 78%
23:00 +16°C° 0 mm 3 mps 753 mmHg 80%

22 May, Saturday

Time Temperature Precipitation Wind Pressure Humidity
00:00 +16°C° 0 mm 3 mps 753 mmHg 83%
01:00 +14°C° 0 mm 3 mps 753 mmHg 85%
02:00 +14°C° 0 mm 3 mps 753 mmHg 86%
03:00 +13°C° 0 mm 3 mps 754 mmHg 86%
04:00 +13°C° 0 mm 3 mps 754 mmHg 86%
05:00 +14°C° 0 mm 3 mps 754 mmHg 83%
06:00 +16°C° 0 mm 3 mps 755 mmHg 79%
07:00 +17°C° 0 mm 3 mps 755 mmHg 75%
08:00 +18°C° 0 mm 3 mps 755 mmHg 68%
09:00 +20°C° 0 mm 4 mps 755 mmHg 62%
10:00 +21°C° 0 mm 4 mps 755 mmHg 55%
11:00 +22°C° 0 mm 4 mps 755 mmHg 53%
12:00 +23°C° 0 mm 4 mps 755 mmHg 52%
13:00 +23°C° 0 mm 4 mps 755 mmHg 50%
14:00 +25°C° 0 mm 4 mps 755 mmHg 49%
15:00 +25°C° 0 mm 3 mps 755 mmHg 48%
16:00 +26°C° 0 mm 3 mps 755 mmHg 47%
17:00 +25°C° 0 mm 3 mps 754 mmHg 50%
18:00 +25°C° 0 mm 3 mps 754 mmHg 54%
19:00 +24°C° 0 mm 2 mps 754 mmHg 58%
20:00 +22°C° 0 mm 3 mps 754 mmHg 61%
21:00 +21°C° 0 mm 3 mps 753 mmHg 64%
22:00 +19°C° 0 mm 3 mps 753 mmHg 67%
23:00 +20°C° 0 mm 4 mps 753 mmHg 65%

23 May, Sunday

Time Temperature Precipitation Wind Pressure Humidity
00:00 +20°C° 0 mm 4 mps 753 mmHg 63%
01:00 +20°C° 0 mm 5 mps 753 mmHg 61%
02:00 +19°C° 0 mm 4 mps 753 mmHg 66%
03:00 +18°C° 0 mm 3 mps 754 mmHg 70%
04:00 +18°C° 0 mm 1 mps 754 mmHg 75%
05:00 +17°C° 0.2 mm 2 mps 754 mmHg 79%
06:00 +17°C° 0.2 mm 2 mps 755 mmHg 83%
07:00 +17°C° 0.2 mm 2 mps 755 mmHg 87%
08:00 +17°C° 0.4 mm 2 mps 755 mmHg 86%
09:00 +19°C° 0.4 mm 1 mps 756 mmHg 85%
10:00 +20°C° 0.4 mm 1 mps 756 mmHg 83%
11:00 +20°C° 0.6 mm 1 mps 756 mmHg 83%
12:00 +20°C° 0.6 mm 1 mps 756 mmHg 83%
13:00 +19°C° 0.6 mm 2 mps 756 mmHg 82%
14:00 +20°C° 0 mm 2 mps 756 mmHg 78%
15:00 +21°C° 0 mm 2 mps 756 mmHg 74%
16:00 +23°C° 0 mm 2 mps 756 mmHg 69%
17:00 +22°C° 0.2 mm 3 mps 755 mmHg 73%
18:00 +21°C° 0.2 mm 4 mps 755 mmHg 77%
19:00 +21°C° 0.2 mm 4 mps 754 mmHg 81%
20:00 +20°C° 0 mm 5 mps 754 mmHg 83%
21:00 +19°C° 0 mm 5 mps 754 mmHg 85%
22:00 +17°C° 0 mm 5 mps 754 mmHg 87%
23:00 +17°C° 0 mm 5 mps 754 mmHg 87%
Show more

We Need Your Consent

Meteoprog and our Service Providers may store and access personal data such as cookies, device identifiers or other similar technologies on your device and process such data to personalise content and ads, as well as provide social media features and to analyse the traffic.

  • Store and/or access information on your device

    Cookies, device identifiers or other information can be stored or accessed on your device for the purposes indicated above.

  • Personalised ads and content, ad and content measurement, audience insights, and products development

    Ads and content can be personalised based on a profile. More data can be added to better personalise ads and content. Ad and content performance can be measured. Insights about the audience who saw the ads and content can be derived. Such data can be used to develop or improve user’s experience, systems and software.

By clicking ‘I Agree’ you will allow the use of indicated cookies, device identifiers, web beacons or other similar technologies. Your settings can be changed in the browser on your device.

For certain purposes, legitimate interests may be relied on, rather than consent. You can read more about this in our Privacy and Cookie Policy.